OK1VCF-8 Weather Reports


Display with metric or nautical units.
time (UTC)temp
F
wind
direction
speed
MPH
gust
MPH
rain 1hr
in
rain 24hr
in
rain mn
in
humidity
%
barometer
mb
20260506084835 66 0 0.0 0.0 0.00 0.00 0.00 62 1008.0
20260506084117 67 0 0.0 0.0 0.00 0.00 0.00 60 1007.8
20260506083112 68 0 0.0 0.0 0.00 0.00 0.00 60 1008.0
20260506082351 68 0 0.0 0.0 0.00 0.00 0.00 64 1008.0
20260506081630 66 0 0.0 0.0 0.00 0.00 0.00 65 1007.9
20260506080911 66 0 0.0 0.0 0.00 0.00 0.00 66 1008.0
20260506080152 66 0 0.0 0.0 0.00 0.00 0.00 69 1008.0
20260506073229 64 0 0.0 0.0 0.00 0.00 0.00 72 1007.9
20260506072508 64 0 0.0 0.0 0.00 0.00 0.00 72 1008.0
20260506071747 65 0 0.0 0.0 0.00 0.00 0.00 70 1008.0
20260506071017 64 0 0.0 0.0 0.00 0.00 0.00 72 1008.0
20260506070241 64 0 0.0 0.0 0.00 0.00 0.00 71 1007.8
20260506062140 61 0 0.0 0.0 0.00 0.00 0.00 78 1007.8
20260506061403 60 0 0.0 0.0 0.00 0.00 0.00 79 1007.8
20260506060626 60 0 0.0 0.0 0.00 0.00 0.00 82 1007.7
20260506050716 56 0 0.0 0.0 0.00 0.00 0.00 92 1008.0
20260506044237 56 0 0.0 0.0 0.00 0.00 0.00 88 1007.7
20260506043514 58 0 0.0 0.0 0.00 0.00 0.00 90 1007.6
20260506042757 54 0 0.0 0.0 0.00 0.00 0.00 92 1007.6
20260506042038 55 0 0.0 0.0 0.00 0.00 0.00 90 1007.5
20260506035858 55 0 0.0 0.0 0.00 0.00 0.00 96 1007.4
20260506035142 54 0 0.0 0.0 0.00 0.00 0.00 96 1007.0
20260506034415 52 0 0.0 0.0 0.00 0.00 0.00 96 1007.1
20260506033642 52 0 0.0 0.0 0.00 0.00 0.00 96 1007.2
20260506031441 52 0 0.0 0.0 0.00 0.00 0.00 96 1007.0
20260506030724 52 0 0.0 0.0 0.00 0.00 0.00 96 1007.2
20260506030005 52 0 0.0 0.0 0.00 0.00 0.00 96 1007.2
20260506025004 52 0 0.0 0.0 0.00 0.00 0.00 96 1007.2
20260506024245 52 0 0.0 0.0 0.00 0.00 0.00 96 1007.1
20260506023526 52 0 0.0 0.0 0.00 0.00 0.00 96 1007.2
20260506022809 52 0 0.0 0.0 0.00 0.00 0.00 96 1007.2
20260506022051 52 0 0.0 0.0 0.00 0.00 0.00 96 1007.4
20260506021332 53 0 0.0 0.0 0.00 0.00 0.00 96 1007.4
20260506020615 53 0 0.0 0.0 0.00 0.00 0.00 96 1007.3
20260506015857 54 0 0.0 0.0 0.00 0.00 0.00 96 1007.2
20260506015140 54 0 0.0 0.0 0.00 0.00 0.00 96 1007.2
20260506014423 54 0 0.0 0.0 0.00 0.00 0.00 96 1007.1
20260506013704 54 0 0.0 0.0 0.00 0.00 0.00 96 1007.0
20260506011506 54 0 0.0 0.0 0.00 0.00 0.00 95 1006.8
20260506010730 54 0 0.0 0.0 0.00 0.00 0.00 95 1006.8
20260506005631 54 0 0.0 0.0 0.00 0.00 0.00 95 1007.0
20260506004813 54 0 0.0 0.0 0.00 0.00 0.00 95 1006.9
20260506003945 54 0 0.0 0.0 0.00 0.00 0.00 95 1007.0
20260506003121 55 0 0.0 0.0 0.00 0.00 0.00 95 1007.0
20260506002305 55 0 0.0 0.0 0.00 0.00 0.00 94 1007.1
20260506001441 55 0 0.0 0.0 0.00 0.00 0.00 94 1007.0
20260506000625 55 0 0.0 0.0 0.00 0.00 0.00 94 1006.8
20260505235812 55 0 0.0 0.0 0.00 0.00 0.00 94 1007.0
20260505235004 56 0 0.0 0.0 0.00 0.00 0.00 94 1006.9
20260505234218 56 0 0.0 0.0 0.00 0.00 0.00 94 1006.9
20260505233436 56 0 0.0 0.0 0.00 0.00 0.00 94 1007.2
20260505232658 55 0 0.0 0.0 0.00 0.00 0.00 94 1007.1
20260505231931 56 0 0.0 0.0 0.00 0.00 0.00 94 1007.2
20260505231213 56 0 0.0 0.0 0.00 0.00 0.00 94 1007.3
20260505230454 56 0 0.0 0.0 0.00 0.00 0.00 94 1007.6
20260505225453 55 0 0.0 0.0 0.00 0.00 0.00 94 1007.2
20260505224736 55 0 0.0 0.0 0.00 0.00 0.00 94 1007.4
20260505224018 56 0 0.0 0.0 0.00 0.00 0.00 94 1007.3
20260505223300 56 0 0.0 0.0 0.00 0.00 0.00 94 1007.4
20260505222543 56 0 0.0 0.0 0.00 0.00 0.00 94 1007.4
20260505221827 56 0 0.0 0.0 0.00 0.00 0.00 94 1007.2
20260505221108 56 0 0.0 0.0 0.00 0.00 0.00 93 1007.4
20260505220350 56 0 0.0 0.0 0.00 0.00 0.00 93 1007.4
20260505215632 56 0 0.0 0.0 0.00 0.00 0.00 92 1007.4
20260505214913 56 0 0.0 0.0 0.00 0.00 0.00 92 1007.5
20260505214156 56 0 0.0 0.0 0.00 0.00 0.00 92 1007.4
20260505213438 57 0 0.0 0.0 0.00 0.00 0.00 92 1007.6
20260505212720 58 0 0.0 0.0 0.00 0.00 0.00 92 1007.6
20260505212002 58 0 0.0 0.0 0.00 0.00 0.00 92 1007.5
20260505211245 58 0 0.0 0.0 0.00 0.00 0.00 92 1007.4
20260505210243 57 0 0.0 0.0 0.00 0.00 0.00 90 1007.2
20260505204106 58 0 0.0 0.0 0.00 0.00 0.00 86 1006.4
20260505203348 59 0 0.0 0.0 0.00 0.00 0.00 78 1006.3
20260505202630 59 0 0.0 0.0 0.00 0.00 0.00 77 1005.8
20260505200447 63 0 0.0 0.0 0.00 0.00 0.00 66 1005.6
20260505195727 63 0 0.0 0.0 0.00 0.00 0.00 67 1005.4
20260505195009 64 0 0.0 0.0 0.00 0.00 0.00 66 1005.0
20260505194251 64 0 0.0 0.0 0.00 0.00 0.00 66 1004.8
20260505193534 64 0 0.0 0.0 0.00 0.00 0.00 66 1004.7
20260505192815 64 0 0.0 0.0 0.00 0.00 0.00 66 1004.6
20260505192057 64 0 0.0 0.0 0.00 0.00 0.00 65 1004.6
20260505191054 64 0 0.0 0.0 0.00 0.00 0.00 64 1004.6
20260505190333 64 0 0.0 0.0 0.00 0.00 0.00 64 1004.8
20260505184148 64 0 0.0 0.0 0.00 0.00 0.00 62 1004.8
20260505183430 64 0 0.0 0.0 0.00 0.00 0.00 62 1004.8
20260505182712 64 0 0.0 0.0 0.00 0.00 0.00 62 1004.7
20260505181953 65 0 0.0 0.0 0.00 0.00 0.00 62 1004.8
20260505181234 66 0 0.0 0.0 0.00 0.00 0.00 60 1004.6
20260505180516 66 0 0.0 0.0 0.00 0.00 0.00 57 1004.7
20260505175753 66 0 0.0 0.0 0.00 0.00 0.00 56 1004.8
20260505173613 68 0 0.0 0.0 0.00 0.00 0.00 54 1005.0
20260505172854 68 0 0.0 0.0 0.00 0.00 0.00 55 1005.2
20260505171851 68 0 0.0 0.0 0.00 0.00 0.00 56 1005.4
20260505171131 69 0 0.0 0.0 0.00 0.00 0.00 56 1005.4
20260505170411 69 0 0.0 0.0 0.00 0.00 0.00 54 1005.6
20260505165650 70 0 0.0 0.0 0.00 0.00 0.00 52 1005.6
20260505164932 70 0 0.0 0.0 0.00 0.00 0.00 52 1005.6
20260505164212 70 0 0.0 0.0 0.00 0.00 0.00 51 1005.8
20260505163453 72 0 0.0 0.0 0.00 0.00 0.00 49 1005.6
20260505162734 73 0 0.0 0.0 0.00 0.00 0.00 47 1005.6
20260505162015 76 0 0.0 0.0 0.00 0.00 0.00 42 1005.4
20260505161256 82 0 0.0 0.0 0.00 0.00 0.00 36 1005.2
20260505160537 86 0 0.0 0.0 0.00 0.00 0.00 33 1005.1
20260505152616 86 0 0.0 0.0 0.00 0.00 0.00 30 1005.5
20260505151857 92 0 0.0 0.0 0.00 0.00 0.00 26 1005.6
20260505151139 82 0 0.0 0.0 0.00 0.00 0.00 34 1005.7
20260505150420 78 0 0.0 0.0 0.00 0.00 0.00 38 1005.8
20260505140547 78 0 0.0 0.0 0.00 0.00 0.00 38 1006.2
20260505124804 77 0 0.0 0.0 0.00 0.00 0.00 40 1007.0
20260505123940 77 0 0.0 0.0 0.00 0.00 0.00 40 1006.9
20260505123115 77 0 0.0 0.0 0.00 0.00 0.00 41 1007.0
20260505122255 76 0 0.0 0.0 0.00 0.00 0.00 43 1007.1
20260505121430 76 0 0.0 0.0 0.00 0.00 0.00 43 1007.2
20260505120616 76 0 0.0 0.0 0.00 0.00 0.00 42 1007.4
20260505115755 76 0 0.0 0.0 0.00 0.00 0.00 42 1007.6
20260505114939 75 0 0.0 0.0 0.00 0.00 0.00 42 1007.6
20260505114129 76 0 0.0 0.0 0.00 0.00 0.00 42 1007.6
20260505113056 74 0 0.0 0.0 0.00 0.00 0.00 42 1007.7
20260505112322 75 0 0.0 0.0 0.00 0.00 0.00 41 1007.8
20260505111558 74 0 0.0 0.0 0.00 0.00 0.00 42 1007.8
20260505110839 74 0 0.0 0.0 0.00 0.00 0.00 43 1008.0
20260505110119 74 0 0.0 0.0 0.00 0.00 0.00 42 1008.0
20260505101718 74 0 0.0 0.0 0.00 0.00 0.00 44 1008.4
20260505100958 74 0 0.0 0.0 0.00 0.00 0.00 44 1008.4
20260505100233 75 0 0.0 0.0 0.00 0.00 0.00 44 1008.4
20260505095512 74 0 0.0 0.0 0.00 0.00 0.00 44 1008.4
20260505094753 74 0 0.0 0.0 0.00 0.00 0.00 47 1008.4
20260505093749 73 0 0.0 0.0 0.00 0.00 0.00 48 1008.6
20260505093030 73 0 0.0 0.0 0.00 0.00 0.00 50 1008.6
20260505092310 72 0 0.0 0.0 0.00 0.00 0.00 52 1008.8
20260505091552 72 0 0.0 0.0 0.00 0.00 0.00 54 1008.8